Probability
0 0 0 0 0 0 0 0 0 0 0 0 0 0 0 0 0 0 0 0 0 0 0 0 0 0 0 0 0 0 0 0 0 0 0 0 0 0 0 0 0 0 0 0
0 0 0 0 0 0 0 0 0 0 0 0 0 0 0 0 0 0 0 0 0 0 0 0 0 0 0 0 0 0 0 0 0 0 0 0 0 0 0 0 0 0 0 0
0 0 0 0 0 0 0 0 0 0 0 0 0 0 0 0 0 0 0 0 0 0 0 0 0 0 0 0 0 0 0 0 0 0 0 0 0 0 0 0 0 0 0 0
0 0 0 0 0 0 0 0 0 0 0 0 0 0 0 0 0 0 0 0 0 0 0 0 0 0 0 0 0 0 0 0 0 0 0 0 0 0 0 0 0 0 0 0
0 0 0 0 0 0 0 0 0 0 0 0 0 0 0 0 0 0 0 0 0 0 0 0 0 0 0 0 0 0 0 0 0 0 0 0 0 0 0 0 0 0 0 0
0 0 0 0 0 0 0 0 0 0 0 0 0 0 0 0 0 0 0 0 0 0 0 0 0 0 0 0 0 0 0 0 0 0 0 0 0 0 0 0 0 0 0 0
0 0 0 0 0 0 0 0 0 0 0 0 0 0 0 0 0 0 0 0 0 0 0 0 0 0 0 0 0 0 0 0 0 0 0 0 0 0 0 0 0 0 0 0
0 0 0 0 0 0 0 0 0 0 0 0 0 0 0 0 0 0 0 0 0 0 0 0 0 0 0 0 0 0 0 0 0 0 0 0 0 0 0 0 0 0 0 0
0 0 0 0 0 0 0 0 0 0 0 0 0 0 0 0 0 0 0 0 0 0 0 0 0 0 0 0 0 0 0 0 0 0 0 0 0 0 0 0 0 0 0 0
0 0 0 0 0 0 0 0 0 0 0 0 0 0 0 0 0 0 0 0 0 0 0 0 0 0 0 0 0 0 0 0 0 0 0 0 0 0 0 0 0 0 0 0
0 0 0 0 0 0 0 0 0 0 0 0 0 0 0 0 0 0 0 0 0 0 0 0 0 0 0 0 0 0 0 0 0 0 0 0 0 0 0 0 0 0 0 0
0 0 0 0 0 0 0 0 0 0 0 0 0 0 0 0 0 0 0 0 0 0 0 0 0 0 0 0 0 0 0 0 0 0 0 0 0 0 0 0 0 0 0 0
0 0 0 0 0 0 0 0 0 0 0 0 0 0 0 0 0 0 0 0 0 0 0 0 0 0 0 0 0 0 0 0 0 0 0 0 0 0 0 0 0 0 0 0
0 0 0 0 0 0 0 0 0 0 0 0 0 0 0 0 0 0 0 0 0 0 0 0 0 0 0 0 0 0 0 0 0 0 0 0 0 0 0 0 0 0 0 0
0 0 0 0 0 0 0 0 0 0 0 0 0 0 0 0 0 0 0 0 0 0 0 0 0 0 0 0 0 0 0 0 0 0 0 0 0 0 0 0 0 0 0 0
0 0 0 0 0 0 0 0 0 0 0 0 0 0 0 0 0 0 0 0 0 0 0 0 0 0 0 0 0 0 0 0 0 0 0 0 0 0 0 0 0 0 0 0
0 0 0 0 0 0 0 0 0 0 0 0 0 0 0 0 0 0 0 0 0 0 0 0 0 0 0 0 0 0 0 0 0 0 0 0 0 0 0 0 0 0 0 0
0 0 0 0 0 0 0 0 0 0 0 0 0 0 0 0 0 0 0 0 0 0 0 0 0 0 0 0 0 0 0 0 0 0 0 0 0 0 0 0 0 0 0 0
0 0 0 0 0 0 0 0 0 0 0 0 0 0 0 0 0 0 0 0 0 0 0 0 0 0 0 0 0 0 0 0 0 0 0 0 0 0 0 0 0 0 0 0
0 0 0 0 0 0 0 0 0 0 0 0 0 0 0 0 0 0 0 0 0 0 0 0 0 0 0 0 0 0 0 0 0 0 0 0 0 0 0 0 0 0 0 0
0 0 0 0 0 0 0 0 0 0 0 0 0 0 0 0 0 0 0 0 0 0 0 0 0 0 0 0 0 0 0 0 0 0 0 0 0 0 0 0 0 0 0 0
0 0 0 0 0 0 0 0 0 0 0 0 0 0 0 0 0 0 0 0 0 0 0 0 0 0 0 0 0 0 0 0 0 0 0 0 0 0 0 0 0 0 0 0
0 0 0 0 0 0 0 0 0 0 0 0 0 0 0 0 0 0 0 0 0 0 0 0 0 0 0 0 0 0 0 0 0 0 0 0 0 0 0 0 0 0 0 0
0 0 0 0 0 0 0 0 0 0 0 0 0 0 0 0 0 0 0 0 0 0 0 0 0 0 0 0 0 0 0 0 0 0 0 0 0 0 0 0 0 0 0 0
0 0 0 0 0 0 0 0 0 0 0 0 0 0 0 0 0 0 0 0 0 0 0 0 0 0 0 0 0 0 0 0 0 0 0 0 0 0 0 0 0 0 0 0
0 0 0 0 0 0 0 0 0 0 0 0 0 0 0 0 0 0 0 0 0 0 0 0 0 0 0 0 0 0 0 0 0 0 0 0 0 0 0 0 0 0 0 0
0 0 0 0 0 0 0 0 0 0 0 0 0 0 0 0 0 0 0 0 0 0 0 0 0 0 0 0 0 0 0 0 0 0 0 0 0 0 0 0 0 0 0 0
Wind_Speed
8 9 7 8 10 11 13 12 12 12 15 14 9 8 7 6 5 5 4 4 4 4 4 4 3 3 3 2 1 1 1 1 0 1 1 1 1 1 1 1 1 1 1 1
7 8 9 11 13 15 16 15 15 15 17 13 10 8 7 6 6 7 6 5 5 5 4 4 4 3 3 3 2 2 2 1 1 1 1 1 1 1 2 2 1 2 1 1
6 6 6 11 13 14 14 14 14 17 17 11 10 9 8 7 7 7 6 5 5 5 5 5 4 3 3 3 2 2 2 2 1 1 1 1 1 1 1 1 1 1 1 1
4 3 11 10 7 11 14 15 14 13 13 12 11 8 6 5 5 5 4 4 3 3 2 2 2 2 2 2 2 2 2 2 1 1 1 1 1 1 1 1 1 1 1 1
4 6 9 8 6 7 10 13 10 10 10 9 7 6 6 3 2 2 2 2 2 1 1 1 2 2 2 2 3 3 2 2 1 2 2 2 2 1 1 1 1 1 2 2
5 6 9 8 5 5 6 11 6 7 9 8 5 6 6 3 2 1 2 1 1 1 0 1 1 2 2 3 3 3 2 2 1 1 2 2 1 1 1 1 1 2 2 2
10 9 9 7 4 2 6 8 4 5 6 6 7 7 5 3 2 1 1 1 1 1 0 0 1 2 2 2 2 1 1 1 1 1 1 1 1 1 2 2 2 2 2 1
7 10 11 4 3 5 6 3 3 3 3 4 5 6 4 3 2 1 1 0 1 1 0 1 1 2 2 2 1 2 2 2 1 1 1 1 1 1 2 2 2 2 2 1
7 8 5 4 5 4 2 3 3 3 4 4 5 6 5 4 3 2 1 0 0 1 1 1 2 1 2 0 1 2 3 2 1 1 1 1 1 2 2 2 2 1 1 1
8 9 8 7 6 5 4 5 5 4 4 4 6 7 6 4 3 2 1 1 1 2 1 1 2 2 2 1 2 3 3 2 2 2 1 1 1 1 1 1 2 2 1 1
10 10 9 9 8 6 5 4 5 5 5 6 6 7 6 4 4 3 2 1 1 2 2 1 1 2 2 1 2 3 2 2 2 2 2 2 1 1 1 0 1 2 2 2
12 8 7 7 4 4 5 6 6 6 6 5 5 6 5 4 3 2 2 1 1 1 1 1 1 1 1 1 1 2 3 2 2 2 1 2 2 2 3 2 2 1 1 0
12 8 7 8 6 4 5 6 6 6 6 5 4 3 3 2 1 1 2 2 2 2 2 1 1 1 0 1 0 1 2 2 2 2 2 2 1 2 1 2 2 2 2 1
6 5 8 7 6 5 4 4 3 2 2 2 2 1 1 1 1 2 2 2 2 2 2 1 1 1 1 0 1 1 1 1 1 2 2 1 1 1 1 1 0 1 2 2
6 6 7 5 5 4 3 2 2 3 2 1 1 1 2 2 3 2 2 2 2 2 2 2 2 1 1 0 2 2 2 1 1 1 1 1 1 1 1 1 1 1 1 2
4 4 5 6 6 5 3 3 4 4 3 2 2 2 2 2 1 1 2 2 3 3 2 2 2 1 0 1 2 2 2 2 2 1 1 1 1 1 1 1 1 1 1 1
4 6 5 6 6 5 5 5 5 5 4 3 3 2 2 2 2 2 1 1 1 2 2 2 2 1 1 1 1 1 2 2 2 1 1 1 1 1 1 1 1 2 2 2
6 6 6 6 5 6 5 4 3 3 3 3 3 3 3 4 4 3 2 2 1 1 1 1 2 2 1 1 1 1 2 2 1 1 1 1 1 1 1 1 1 2 2 3
4 4 5 4 4 4 4 3 3 2 2 2 3 3 3 3 3 3 2 2 2 2 2 1 2 2 2 1 1 1 2 2 1 1 1 1 0 1 1 1 1 2 2 2
3 3 3 3 2 2 3 2 2 2 2 2 3 3 2 2 3 3 3 2 2 2 2 2 2 1 1 1 1 1 2 2 1 1 1 1 1 1 2 2 2 2 2 3
3 3 3 3 2 2 2 2 2 3 2 2 3 4 3 3 3 3 3 2 2 2 2 2 2 1 1 1 1 1 1 1 1 1 1 2 2 2 2 2 3 3 3 3
3 3 3 3 2 2 1 2 2 3 2 2 3 3 3 3 3 2 2 3 2 2 2 1 1 2 2 2 1 1 1 1 1 1 2 2 2 2 3 3 3 3 3 3
3 3 3 3 3 2 1 2 2 3 3 3 3 4 4 3 3 3 2 2 2 3 2 2 2 2 2 2 1 1 2 2 2 2 2 2 3 3 3 3 3 4 4 4
3 2 2 2 2 2 2 2 2 2 2 2 2 3 3 2 1 1 1 2 2 2 1 2 3 3 2 1 1 2 2 2 2 2 3 3 3 3 3 4 4 4 4 5
2 2 2 3 3 3 3 2 2 2 2 1 1 1 2 2 2 1 1 2 2 2 1 2 3 2 1 1 2 2 2 2 3 3 3 3 3 3 4 4 4 5 5 5
2 2 2 3 3 2 2 2 2 2 2 2 1 1 1 1 1 1 1 2 2 2 2 2 2 2 2 2 2 2 3 3 3 3 4 4 4 4 4 5 6 5 5 5
2 2 1 1 2 2 2 2 2 2 2 2 2 1 1 1 1 1 2 2 2 2 2 2 2 2 2 2 2 3 3 3 3 3 3 4 4 4 5 6 5 5 5 5
Wind_Direction
265 278 272 259 253 249 245 241 243 250 255 261 260 258 258 256 256 255 239 228 224 218 207 195 192 199 198 203 204 205 193 165 189 57 58 49 43 41 55 78 90 101 101 89
263 260 265 265 253 243 246 247 249 258 262 261 266 265 258 247 245 251 250 242 238 229 214 211 204 201 199 196 195 188 186 189 169 108 85 68 50 52 65 69 71 88 109 118
259 265 271 252 238 239 239 238 243 251 258 267 268 262 256 249 243 245 253 252 241 227 215 209 206 198 201 194 180 177 180 172 156 140 134 128 112 96 96 86 82 94 97 93
256 252 239 244 231 233 242 247 244 249 258 262 264 263 257 250 244 251 254 256 258 247 235 213 188 170 169 171 175 176 176 166 151 153 166 159 153 155 141 108 108 109 89 82
228 242 261 264 240 230 241 252 250 256 265 271 283 291 278 285 259 249 258 263 271 266 245 218 174 157 154 179 177 174 186 189 182 177 182 178 184 178 146 117 108 97 89 82
233 241 244 250 244 239 242 255 253 258 268 275 283 269 270 303 313 318 335 339 346 356 41 161 155 137 160 187 180 190 192 190 182 170 173 185 191 156 115 119 119 103 83 71
235 245 255 253 258 242 220 246 257 254 263 266 258 260 281 305 318 323 323 335 11 26 7 340 89 132 163 176 197 188 135 123 116 122 147 149 145 119 107 107 105 98 89 72
222 235 248 251 221 214 240 266 277 270 277 277 280 289 292 290 284 277 282 319 52 53 9 28 86 146 170 194 146 95 109 115 114 96 104 124 145 125 118 125 124 114 101 77
219 234 254 248 241 249 272 279 285 289 301 299 291 285 286 279 268 265 231 230 88 119 87 33 48 101 155 107 92 108 111 112 108 91 84 110 150 150 138 138 142 139 121 100
259 259 258 261 269 273 274 266 270 272 277 277 274 275 275 263 250 237 220 194 138 127 138 14 32 57 90 98 104 120 127 128 131 131 116 93 102 132 140 146 153 154 150 162
260 268 277 263 254 260 275 277 278 277 264 253 259 267 261 249 238 226 209 178 159 169 170 155 66 59 62 70 109 128 138 141 134 125 131 121 99 95 114 108 168 175 183 179
252 251 250 266 271 259 261 266 267 271 270 259 246 255 256 243 225 200 183 157 157 161 158 139 102 78 43 28 117 146 152 147 137 128 121 119 116 86 67 74 62 72 116 162
254 265 264 275 283 269 258 263 264 257 255 261 258 243 237 231 208 174 165 160 171 178 166 140 126 116 10 348 128 164 165 158 146 138 133 130 134 139 124 56 52 48 35 4
251 262 267 265 269 275 272 279 279 272 270 255 251 238 201 200 184 175 182 170 150 143 145 152 156 221 283 210 147 143 140 139 145 144 143 146 150 153 164 171 238 338 355 352
243 237 250 268 275 272 270 265 261 261 261 261 224 199 189 196 202 198 163 134 129 141 160 169 183 238 296 157 146 148 148 144 134 126 124 130 139 148 161 165 210 263 312 336
260 259 254 255 257 258 255 245 241 248 242 239 224 216 203 191 190 172 157 151 158 185 194 190 210 235 225 160 150 148 148 142 137 134 131 130 137 155 186 203 224 244 265 284
238 254 250 255 254 252 243 240 239 239 229 220 219 202 170 158 165 180 180 167 174 188 194 193 206 210 183 168 162 153 147 146 138 134 148 159 169 192 213 220 234 248 260 274
228 241 242 242 245 247 251 246 236 231 224 214 195 181 184 189 199 203 192 153 125 115 230 207 191 169 158 165 171 159 151 150 144 149 157 163 187 211 228 242 251 263 279 292
249 251 256 253 245 236 237 233 229 228 215 187 187 198 206 208 202 190 170 167 180 207 236 218 173 134 144 167 140 137 142 138 134 135 145 161 202 233 235 242 255 266 273 281
258 256 253 255 245 222 225 222 203 211 213 192 185 188 202 211 193 176 171 198 220 209 178 162 145 146 158 167 128 131 139 146 157 171 180 201 221 235 244 250 255 264 271 274
255 253 245 244 251 236 217 207 195 208 212 199 194 198 203 206 188 175 174 209 222 167 162 162 157 161 160 149 137 138 148 162 178 195 206 218 230 240 249 255 258 260 264 268
242 238 235 231 227 243 233 195 193 196 195 199 196 186 181 189 189 188 204 205 188 159 146 151 155 164 163 151 145 153 168 180 196 206 217 226 233 241 250 257 261 264 265 266
227 224 223 216 213 221 218 196 193 188 195 203 201 195 192 193 186 181 211 196 169 169 158 168 181 179 165 153 156 170 186 198 212 221 228 233 237 242 251 258 261 262 264 266
223 217 212 198 173 185 219 219 194 187 193 210 212 201 186 181 200 210 173 161 164 166 165 187 200 198 174 168 180 195 206 214 222 229 235 239 242 246 250 255 260 262 263 265
211 204 192 180 193 213 214 193 174 182 185 192 203 202 199 190 187 175 156 171 177 180 192 214 220 210 188 198 205 214 222 228 231 232 237 243 247 251 255 257 258 261 263 263
209 208 207 205 207 202 188 181 195 197 185 195 209 196 179 162 163 170 172 185 194 201 208 211 207 204 208 215 223 230 236 242 245 243 242 247 251 254 259 262 265 265 267 267
206 203 197 211 214 202 196 197 204 208 200 195 210 204 182 179 180 182 185 192 202 213 218 217 214 215 218 225 234 240 243 245 245 246 248 249 252 255 259 262 264 266 267 268